Time,TemperatureF,DewpointF,PressureIn,WindDirection,WindDirectionDegrees,WindSpeedMPH,WindSpeedGustMPH,Humidity,HourlyPrecipIn,Conditions,Clouds,dailyrainin,SolarRadiationWatts/m^2,SoftwareType,DateUTC
2013-10-19 00:03:00,34.0,34.0,29.96,WSW,239,10.0,12.0,100,0.00,,---,0.00,0.00,VWS V14.01,2013-10-19 05:03:00,
2013-10-19 00:08:00,34.0,34.0,29.96,SW,226,7.0,12.0,100,0.00,,---,0.00,0.00,VWS V14.01,2013-10-19 05:08:00,
2013-10-19 00:13:00,34.0,34.0,29.96,SW,230,7.0,13.0,100,0.00,,---,0.00,0.00,VWS V14.01,2013-10-19 05:13:00,
2013-10-19 00:18:00,34.0,34.0,29.95,SW,227,12.0,14.0,100,0.00,,---,0.00,0.00,VWS V14.01,2013-10-19 05:18:00,
2013-10-19 00:23:00,34.1,34.1,29.95,SW,226,6.0,13.0,100,0.00,,---,0.00,0.00,VWS V14.01,2013-10-19 05:23:00,
2013-10-19 00:28:00,34.1,34.1,29.95,SW,222,11.0,12.0,100,0.00,,---,0.00,0.00,VWS V14.01,2013-10-19 05:28:00,
2013-10-19 00:33:00,34.3,34.3,29.94,SW,220,11.0,12.0,100,0.01,,---,0.01,0.00,VWS V14.01,2013-10-19 05:33:00,
2013-10-19 00:39:00,34.1,34.1,29.94,SSW,203,10.0,15.0,100,0.01,,---,0.01,0.00,VWS V14.01,2013-10-19 05:39:00,
2013-10-19 00:44:00,34.3,34.3,29.94,WSW,244,11.0,13.0,100,0.01,,---,0.01,0.00,VWS V14.01,2013-10-19 05:44:00,
2013-10-19 00:49:00,34.3,34.3,29.94,SW,222,6.0,14.0,100,0.01,,---,0.01,0.00,VWS V14.01,2013-10-19 05:49:00,
2013-10-19 00:54:00,34.3,34.3,29.94,WSW,239,11.0,14.0,100,0.01,,---,0.01,0.00,VWS V14.01,2013-10-19 05:54:00,
2013-10-19 00:59:00,34.3,34.3,29.94,WSW,240,10.0,17.0,100,0.01,,---,0.01,0.00,VWS V14.01,2013-10-19 05:59:00,
2013-10-19 01:04:00,34.3,34.3,29.94,SW,224,10.0,16.0,100,0.01,,---,0.01,0.00,VWS V14.01,2013-10-19 06:04:00,
2013-10-19 01:09:00,34.3,34.3,29.94,WSW,246,12.0,14.0,100,0.01,,---,0.01,0.00,VWS V14.01,2013-10-19 06:09:00,
2013-10-19 01:14:00,34.1,34.1,29.94,WSW,243,7.0,17.0,100,0.01,,---,0.01,0.00,VWS V14.01,2013-10-19 06:14:00,
2013-10-19 01:19:00,34.1,33.8,29.94,SW,223,9.0,13.0,99,0.01,,---,0.01,0.00,VWS V14.01,2013-10-19 06:19:00,
2013-10-19 01:24:00,34.0,33.8,29.94,SW,226,13.0,14.0,99,0.01,,---,0.01,0.00,VWS V14.01,2013-10-19 06:24:00,
2013-10-19 01:29:00,34.1,33.8,29.94,WSW,240,14.0,16.0,99,0.01,,---,0.01,0.00,VWS V14.01,2013-10-19 06:29:00,
2013-10-19 01:34:00,34.0,33.8,29.93,SW,230,7.0,16.0,99,0.01,,---,0.01,0.00,VWS V14.01,2013-10-19 06:34:00,
2013-10-19 01:39:00,33.8,33.5,29.93,WSW,239,12.0,16.0,99,0.00,,---,0.01,0.00,VWS V14.01,2013-10-19 06:39:00,
2013-10-19 01:44:00,33.8,33.8,29.93,WSW,241,10.0,16.0,100,0.01,,---,0.02,0.00,VWS V14.01,2013-10-19 06:44:00,
2013-10-19 01:49:00,33.8,33.8,29.93,WSW,237,11.0,16.0,100,0.01,,---,0.02,0.00,VWS V14.01,2013-10-19 06:49:00,
2013-10-19 01:54:00,33.7,33.7,29.93,WSW,243,12.0,15.0,100,0.01,,---,0.02,0.00,VWS V14.01,2013-10-19 06:54:00,
2013-10-19 01:59:00,33.5,33.5,29.93,WSW,247,11.0,14.0,100,0.01,,---,0.02,0.00,VWS V14.01,2013-10-19 06:59:00,
2013-10-19 02:04:00,33.5,33.5,29.93,WSW,237,10.0,14.0,100,0.01,,---,0.02,0.00,VWS V14.01,2013-10-19 07:04:00,
2013-10-19 02:10:00,33.5,33.2,29.93,SW,232,9.0,16.0,99,0.01,,---,0.02,0.00,VWS V14.01,2013-10-19 07:10:00,
2013-10-19 02:15:00,33.7,33.5,29.92,WSW,253,11.0,13.0,99,0.01,,---,0.02,0.00,VWS V14.01,2013-10-19 07:15:00,
2013-10-19 02:20:00,33.7,33.5,29.92,SW,233,8.0,13.0,99,0.01,,---,0.02,0.00,VWS V14.01,2013-10-19 07:20:00,
2013-10-19 02:25:00,33.5,33.2,29.92,SW,224,11.0,13.0,99,0.01,,---,0.02,0.00,VWS V14.01,2013-10-19 07:25:00,
2013-10-19 02:30:00,33.4,33.2,29.92,SW,229,12.0,13.0,99,0.01,,---,0.02,0.00,VWS V14.01,2013-10-19 07:30:00,
2013-10-19 02:35:00,33.2,33.0,29.92,WSW,237,9.0,12.0,99,0.01,,---,0.02,0.00,VWS V14.01,2013-10-19 07:35:00,
2013-10-19 02:40:00,33.1,32.8,29.92,WSW,241,13.0,14.0,99,0.01,,---,0.02,0.00,VWS V14.01,2013-10-19 07:40:00,
2013-10-19 02:45:00,32.9,32.7,29.92,WSW,247,11.0,15.0,99,0.01,,---,0.02,0.00,VWS V14.01,2013-10-19 07:45:00,
2013-10-19 02:50:00,32.8,32.5,29.92,WSW,251,13.0,13.0,99,0.00,,---,0.02,0.00,VWS V14.01,2013-10-19 07:50:00,
2013-10-19 02:55:00,32.8,32.5,29.92,WSW,241,10.0,13.0,99,0.00,,---,0.02,0.00,VWS V14.01,2013-10-19 07:55:00,
2013-10-19 03:00:00,32.9,32.7,29.92,WSW,246,9.0,12.0,99,0.00,,---,0.02,0.00,VWS V14.01,2013-10-19 08:00:00,
2013-10-19 03:05:00,32.8,32.5,29.92,WSW,244,10.0,12.0,99,0.00,,---,0.02,0.00,VWS V14.01,2013-10-19 08:05:00,
2013-10-19 03:10:00,32.8,32.5,29.92,WSW,243,10.0,12.0,99,0.00,,---,0.02,0.00,VWS V14.01,2013-10-19 08:10:00,
2013-10-19 03:15:00,32.8,32.5,29.91,WSW,237,10.0,12.0,99,0.00,,---,0.02,0.00,VWS V14.01,2013-10-19 08:15:00,
2013-10-19 03:20:00,32.9,32.7,29.91,WSW,241,10.0,13.0,99,0.00,,---,0.02,0.00,VWS V14.01,2013-10-19 08:20:00,
2013-10-19 03:25:00,32.9,32.7,29.91,WSW,239,7.0,10.0,99,0.00,,---,0.02,0.00,VWS V14.01,2013-10-19 08:25:00,
2013-10-19 03:30:00,33.1,32.8,29.91,WSW,237,11.0,11.0,99,0.00,,---,0.02,0.00,VWS V14.01,2013-10-19 08:30:00,
2013-10-19 03:35:00,33.2,33.0,29.91,SW,234,7.0,9.0,99,0.00,,---,0.02,0.00,VWS V14.01,2013-10-19 08:35:00,
2013-10-19 03:40:00,33.4,33.2,29.91,SW,236,8.0,8.0,99,0.00,,---,0.02,0.00,VWS V14.01,2013-10-19 08:40:00,
2013-10-19 03:46:00,33.5,33.2,29.90,WSW,239,10.0,12.0,99,0.00,,---,0.02,0.00,VWS V14.01,2013-10-19 08:46:00,
2013-10-19 03:51:00,33.5,33.2,29.90,WSW,241,7.0,8.0,99,0.00,,---,0.02,0.00,VWS V14.01,2013-10-19 08:51:00,
2013-10-19 03:56:00,33.2,33.0,29.90,WSW,243,8.0,8.0,99,0.00,,---,0.02,0.00,VWS V14.01,2013-10-19 08:56:00,
2013-10-19 04:01:00,33.2,33.0,29.91,WSW,244,7.0,10.0,99,0.00,,---,0.02,0.00,VWS V14.01,2013-10-19 09:01:00,
2013-10-19 04:06:00,33.1,32.8,29.91,WSW,244,8.0,10.0,99,0.00,,---,0.02,0.00,VWS V14.01,2013-10-19 09:06:00,
2013-10-19 04:11:00,33.1,32.8,29.91,WSW,244,9.0,9.0,99,0.00,,---,0.02,0.00,VWS V14.01,2013-10-19 09:11:00,
2013-10-19 04:17:00,33.1,32.8,29.90,WSW,244,7.0,8.0,99,0.00,,---,0.02,0.00,VWS V14.01,2013-10-19 09:17:00,
2013-10-19 04:22:00,33.1,32.8,29.90,WSW,241,10.0,10.0,99,0.00,,---,0.02,0.00,VWS V14.01,2013-10-19 09:22:00,
2013-10-19 04:27:00,33.1,32.8,29.90,WSW,246,7.0,10.0,99,0.00,,---,0.02,0.00,VWS V14.01,2013-10-19 09:27:00,
2013-10-19 04:32:00,32.9,32.7,29.90,WSW,243,8.0,8.0,99,0.00,,---,0.02,0.00,VWS V14.01,2013-10-19 09:32:00,
2013-10-19 04:37:00,32.9,32.7,29.90,WSW,244,8.0,8.0,99,0.00,,---,0.02,0.00,VWS V14.01,2013-10-19 09:37:00,
2013-10-19 04:42:00,32.9,32.7,29.90,WSW,247,7.0,9.0,99,0.00,,---,0.02,0.00,VWS V14.01,2013-10-19 09:42:00,
2013-10-19 04:47:00,32.9,32.7,29.90,WSW,241,8.0,9.0,99,0.00,,---,0.02,0.00,VWS V14.01,2013-10-19 09:47:00,
2013-10-19 04:52:00,33.1,32.8,29.90,WSW,241,7.0,10.0,99,0.00,,---,0.02,0.00,VWS V14.01,2013-10-19 09:52:00,
2013-10-19 04:57:00,33.1,32.8,29.90,WSW,246,8.0,10.0,99,0.00,,---,0.02,0.00,VWS V14.01,2013-10-19 09:57:00,
2013-10-19 05:02:00,33.1,32.8,29.90,WSW,243,7.0,10.0,99,0.00,,---,0.02,0.00,VWS V14.01,2013-10-19 10:02:00,
2013-10-19 05:07:00,32.9,32.7,29.90,WSW,247,8.0,10.0,99,0.00,,---,0.02,0.00,VWS V14.01,2013-10-19 10:07:00,
2013-10-19 05:13:00,32.9,32.7,29.90,WSW,250,7.0,9.0,99,0.00,,---,0.02,0.00,VWS V14.01,2013-10-19 10:13:00,
2013-10-19 05:18:00,32.8,32.5,29.90,WSW,251,7.0,10.0,99,0.00,,---,0.02,0.00,VWS V14.01,2013-10-19 10:18:00,
2013-10-19 05:23:00,32.7,32.5,29.90,WSW,253,5.0,10.0,99,0.00,,---,0.02,0.00,VWS V14.01,2013-10-19 10:23:00,
2013-10-19 05:28:00,32.9,32.7,29.90,WSW,257,8.0,10.0,99,0.00,,---,0.02,0.00,VWS V14.01,2013-10-19 10:28:00,
2013-10-19 05:33:00,33.2,33.0,29.91,WSW,256,8.0,11.0,99,0.00,,---,0.02,0.00,VWS V14.01,2013-10-19 10:33:00,
2013-10-19 05:38:00,33.2,33.0,29.91,WSW,256,10.0,10.0,99,0.00,,---,0.02,0.00,VWS V14.01,2013-10-19 10:38:00,
2013-10-19 05:43:00,33.2,33.0,29.91,West,267,5.0,11.0,99,0.00,,---,0.02,0.00,VWS V14.01,2013-10-19 10:43:00,
2013-10-19 05:48:00,33.4,33.2,29.91,WSW,257,7.0,10.0,99,0.00,,---,0.02,0.00,VWS V14.01,2013-10-19 10:48:00,
2013-10-19 05:53:00,33.4,33.2,29.91,West,261,8.0,8.0,99,0.00,,---,0.02,0.00,VWS V14.01,2013-10-19 10:53:00,
2013-10-19 05:58:00,33.2,33.0,29.91,West,260,7.0,8.0,99,0.00,,---,0.02,0.00,VWS V14.01,2013-10-19 10:58:00,
2013-10-19 06:03:00,33.2,33.0,29.90,WSW,258,6.0,8.0,99,0.00,,---,0.02,0.00,VWS V14.01,2013-10-19 11:03:00,
2013-10-19 06:08:00,33.2,32.7,29.90,WSW,258,8.0,8.0,98,0.00,,---,0.02,0.00,VWS V14.01,2013-10-19 11:08:00,
2013-10-19 06:13:00,33.1,32.6,29.90,WSW,253,6.0,8.0,98,0.00,,---,0.02,0.00,VWS V14.01,2013-10-19 11:13:00,
2013-10-19 06:18:00,32.9,32.4,29.91,WSW,253,6.0,8.0,98,0.00,,---,0.02,0.00,VWS V14.01,2013-10-19 11:18:00,
2013-10-19 06:23:00,32.9,32.4,29.91,WSW,251,7.0,7.0,98,0.00,,---,0.02,0.00,VWS V14.01,2013-10-19 11:23:00,
2013-10-19 06:28:00,32.9,32.4,29.91,SW,236,7.0,8.0,98,0.00,,---,0.02,0.00,VWS V14.01,2013-10-19 11:28:00,
2013-10-19 06:34:00,32.8,32.3,29.91,WSW,248,7.0,8.0,98,0.00,,---,0.02,0.00,VWS V14.01,2013-10-19 11:34:00,
2013-10-19 06:39:00,32.8,32.3,29.91,WSW,244,8.0,9.0,98,0.00,,---,0.02,0.00,VWS V14.01,2013-10-19 11:39:00,
2013-10-19 06:44:00,32.9,32.4,29.91,WSW,239,9.0,11.0,98,0.00,,---,0.02,0.00,VWS V14.01,2013-10-19 11:44:00,
2013-10-19 06:49:00,33.1,32.6,29.90,WSW,243,10.0,10.0,98,0.00,,---,0.02,0.00,VWS V14.01,2013-10-19 11:49:00,
2013-10-19 06:54:00,32.9,32.4,29.90,WSW,244,10.0,11.0,98,0.00,,---,0.02,0.00,VWS V14.01,2013-10-19 11:54:00,
2013-10-19 06:59:00,32.8,32.3,29.90,WSW,247,10.0,10.0,98,0.00,,---,0.02,0.00,VWS V14.01,2013-10-19 11:59:00,
2013-10-19 07:04:00,32.8,32.3,29.90,WSW,246,8.0,10.0,98,0.00,,---,0.02,0.00,VWS V14.01,2013-10-19 12:04:00,
2013-10-19 07:09:00,32.9,32.1,29.90,WSW,244,8.0,10.0,97,0.00,,---,0.02,0.00,VWS V14.01,2013-10-19 12:09:00,
2013-10-19 07:14:00,32.9,32.1,29.90,WSW,250,8.0,9.0,97,0.00,,---,0.02,0.00,VWS V14.01,2013-10-19 12:14:00,
2013-10-19 07:19:00,32.9,32.1,29.90,WSW,243,8.0,8.0,97,0.00,,---,0.02,0.00,VWS V14.01,2013-10-19 12:19:00,
2013-10-19 07:24:00,32.9,32.1,29.90,WSW,243,7.0,9.0,97,0.00,,---,0.02,0.00,VWS V14.01,2013-10-19 12:24:00,
2013-10-19 07:29:00,33.5,32.7,29.90,WSW,247,9.0,10.0,97,0.00,,---,0.02,0.00,VWS V14.01,2013-10-19 12:29:00,
2013-10-19 07:34:00,33.5,32.7,29.90,WSW,239,7.0,11.0,97,0.00,,---,0.02,0.00,VWS V14.01,2013-10-19 12:34:00,
2013-10-19 07:39:00,33.5,32.5,29.90,WSW,239,9.0,12.0,96,0.00,,---,0.02,0.00,VWS V14.01,2013-10-19 12:39:00,
2013-10-19 07:44:00,33.2,32.2,29.90,WSW,241,10.0,12.0,96,0.00,,---,0.02,0.00,VWS V14.01,2013-10-19 12:44:00,
2013-10-19 07:49:00,33.4,32.4,29.90,SW,236,11.0,11.0,96,0.00,,---,0.02,7.00,VWS V14.01,2013-10-19 12:49:00,
2013-10-19 07:54:00,33.5,32.2,29.90,WSW,239,10.0,11.0,95,0.00,,---,0.02,12.00,VWS V14.01,2013-10-19 12:54:00,
2013-10-19 08:00:00,33.8,32.5,29.90,WSW,241,7.0,12.0,95,0.00,,---,0.02,19.00,VWS V14.01,2013-10-19 13:00:00,
2013-10-19 08:05:00,33.8,32.3,29.90,WSW,239,8.0,10.0,94,0.00,,---,0.02,37.00,VWS V14.01,2013-10-19 13:05:00,
2013-10-19 08:10:00,34.0,32.5,29.90,WSW,240,6.0,11.0,94,0.00,,---,0.02,42.00,VWS V14.01,2013-10-19 13:10:00,
2013-10-19 08:15:00,34.1,32.3,29.90,WSW,237,11.0,11.0,93,0.00,,---,0.02,53.00,VWS V14.01,2013-10-19 13:15:00,
2013-10-19 08:20:00,34.4,32.3,29.90,SW,234,10.0,11.0,92,0.00,,---,0.02,77.00,VWS V14.01,2013-10-19 13:20:00,
2013-10-19 08:25:00,34.6,32.5,29.90,WSW,247,11.0,12.0,92,0.00,,---,0.02,91.00,VWS V14.01,2013-10-19 13:25:00,
2013-10-19 08:30:00,34.7,32.3,29.90,SW,233,10.0,12.0,91,0.00,,---,0.02,106.00,VWS V14.01,2013-10-19 13:30:00,
2013-10-19 08:35:00,34.4,31.8,29.90,SW,233,6.0,10.0,90,0.00,,---,0.02,118.00,VWS V14.01,2013-10-19 13:35:00,
2013-10-19 08:40:00,34.3,31.7,29.90,SW,227,7.0,7.0,90,0.00,,---,0.02,137.00,VWS V14.01,2013-10-19 13:40:00,
2013-10-19 08:45:00,34.4,31.8,29.90,WSW,237,9.0,9.0,90,0.00,,---,0.02,153.00,VWS V14.01,2013-10-19 13:45:00,
2013-10-19 08:50:00,34.9,32.0,29.90,SW,230,8.0,8.0,89,0.00,,---,0.02,165.00,VWS V14.01,2013-10-19 13:50:00,
2013-10-19 08:55:00,35.0,32.1,29.90,SW,232,6.0,11.0,89,0.00,,---,0.02,179.00,VWS V14.01,2013-10-19 13:55:00,
2013-10-19 09:00:00,35.0,31.8,29.89,SW,230,7.0,11.0,88,0.00,,---,0.02,195.00,VWS V14.01,2013-10-19 14:00:00,
2013-10-19 09:05:00,35.3,32.1,29.89,SW,236,11.0,11.0,88,0.01,,---,0.03,204.00,VWS V14.01,2013-10-19 14:05:00,
2013-10-19 09:11:00,35.6,32.1,29.89,SW,236,10.0,10.0,87,0.01,,---,0.03,218.00,VWS V14.01,2013-10-19 14:11:00,
2013-10-19 09:16:00,36.0,32.5,29.89,WSW,240,8.0,11.0,87,0.01,,---,0.03,230.00,VWS V14.01,2013-10-19 14:16:00,
2013-10-19 09:21:00,36.3,32.5,29.89,WSW,243,10.0,11.0,86,0.01,,---,0.03,246.00,VWS V14.01,2013-10-19 14:21:00,
2013-10-19 09:26:00,36.6,32.8,29.89,WSW,241,12.0,13.0,86,0.01,,---,0.03,262.00,VWS V14.01,2013-10-19 14:26:00,
2013-10-19 09:31:00,36.9,33.1,29.90,WSW,244,11.0,11.0,86,0.01,,---,0.03,278.00,VWS V14.01,2013-10-19 14:31:00,
2013-10-19 09:36:00,37.2,33.4,29.90,WSW,243,12.0,12.0,86,0.01,,---,0.03,292.00,VWS V14.01,2013-10-19 14:36:00,
2013-10-19 09:41:00,37.8,34.0,29.90,WSW,250,12.0,12.0,86,0.01,,---,0.03,311.00,VWS V14.01,2013-10-19 14:41:00,
2013-10-19 09:46:00,38.3,34.2,29.89,WSW,243,11.0,11.0,85,0.01,,---,0.03,324.00,VWS V14.01,2013-10-19 14:46:00,
2013-10-19 09:51:00,39.1,34.7,29.89,WSW,247,14.0,14.0,84,0.01,,---,0.03,338.00,VWS V14.01,2013-10-19 14:51:00,
2013-10-19 09:56:00,39.8,35.1,29.89,WSW,240,13.0,14.0,83,0.01,,---,0.03,352.00,VWS V14.01,2013-10-19 14:56:00,
2013-10-19 10:01:00,40.3,35.2,29.89,WSW,247,13.0,17.0,82,0.01,,---,0.03,368.00,VWS V14.01,2013-10-19 15:01:00,
2013-10-19 10:06:00,41.1,35.7,29.89,WSW,253,11.0,14.0,81,0.00,,---,0.03,380.00,VWS V14.01,2013-10-19 15:06:00,
2013-10-19 10:11:00,41.6,35.6,29.89,WSW,258,13.0,16.0,79,0.00,,---,0.03,389.00,VWS V14.01,2013-10-19 15:11:00,
2013-10-19 10:16:00,42.1,35.8,29.88,WSW,256,10.0,16.0,78,0.00,,---,0.03,401.00,VWS V14.01,2013-10-19 15:16:00,
2013-10-19 10:21:00,42.5,35.8,29.88,West,260,10.0,15.0,77,0.00,,---,0.03,415.00,VWS V14.01,2013-10-19 15:21:00,
2013-10-19 10:26:00,42.9,35.9,29.88,WSW,248,12.0,14.0,76,0.00,,---,0.03,428.00,VWS V14.01,2013-10-19 15:26:00,
2013-10-19 10:31:00,43.3,35.9,29.88,WSW,247,13.0,14.0,75,0.00,,---,0.03,440.00,VWS V14.01,2013-10-19 15:31:00,
2013-10-19 10:36:00,43.8,36.1,29.88,WSW,257,13.0,17.0,74,0.00,,---,0.03,452.00,VWS V14.01,2013-10-19 15:36:00,
2013-10-19 10:42:00,44.2,36.5,29.88,West,272,10.0,16.0,74,0.00,,---,0.03,465.00,VWS V14.01,2013-10-19 15:42:00,
2013-10-19 10:47:00,44.8,36.7,29.88,WSW,253,10.0,14.0,73,0.00,,---,0.03,477.00,VWS V14.01,2013-10-19 15:47:00,
2013-10-19 10:52:00,45.2,36.7,29.88,WSW,258,13.0,14.0,72,0.00,,---,0.03,489.00,VWS V14.01,2013-10-19 15:52:00,
2013-10-19 10:57:00,45.5,36.7,29.88,West,274,13.0,17.0,71,0.00,,---,0.03,500.00,VWS V14.01,2013-10-19 15:57:00,
2013-10-19 11:02:00,46.0,37.1,29.87,West,268,16.0,17.0,71,0.00,,---,0.03,510.00,VWS V14.01,2013-10-19 16:02:00,
2013-10-19 11:07:00,46.4,36.8,29.87,WSW,250,11.0,17.0,69,0.00,,---,0.03,521.00,VWS V14.01,2013-10-19 16:07:00,
2013-10-19 11:12:00,47.0,37.0,29.87,West,265,11.0,19.0,68,0.00,,---,0.03,528.00,VWS V14.01,2013-10-19 16:12:00,
2013-10-19 11:17:00,47.6,37.6,29.86,West,260,13.0,14.0,68,0.00,,---,0.03,545.00,VWS V14.01,2013-10-19 16:17:00,
2013-10-19 11:22:00,48.2,37.4,29.86,WSW,258,6.0,16.0,66,0.00,,---,0.03,558.00,VWS V14.01,2013-10-19 16:22:00,
2013-10-19 11:27:00,48.8,37.6,29.86,WSW,251,12.0,17.0,65,0.00,,---,0.03,530.00,VWS V14.01,2013-10-19 16:27:00,
2013-10-19 11:32:00,49.4,37.8,29.86,West,268,11.0,13.0,64,0.00,,---,0.03,531.00,VWS V14.01,2013-10-19 16:32:00,
2013-10-19 11:37:00,49.9,37.8,29.86,West,277,13.0,17.0,63,0.00,,---,0.03,479.00,VWS V14.01,2013-10-19 16:37:00,
2013-10-19 11:42:00,50.4,37.9,29.86,WSW,257,11.0,17.0,62,0.00,,---,0.03,581.00,VWS V14.01,2013-10-19 16:42:00,
2013-10-19 11:47:00,51.1,38.5,29.85,WSW,253,16.0,17.0,62,0.00,,---,0.03,584.00,VWS V14.01,2013-10-19 16:47:00,
2013-10-19 11:52:00,51.7,38.7,29.85,WSW,253,9.0,14.0,61,0.00,,---,0.03,588.00,VWS V14.01,2013-10-19 16:52:00,
2013-10-19 11:57:00,52.5,39.9,29.85,WSW,254,12.0,16.0,62,0.00,,---,0.03,588.00,VWS V14.01,2013-10-19 16:57:00,
2013-10-19 12:02:00,53.1,39.2,29.84,WSW,253,19.0,19.0,59,0.00,,---,0.03,600.00,VWS V14.01,2013-10-19 17:02:00,
2013-10-19 12:08:00,53.3,39.8,29.84,West,265,10.0,17.0,60,0.00,,---,0.03,598.00,VWS V14.01,2013-10-19 17:08:00,
2013-10-19 12:13:00,53.6,38.3,29.84,WSW,244,19.0,24.0,56,0.00,,---,0.03,604.00,VWS V14.01,2013-10-19 17:13:00,
2013-10-19 12:18:00,53.9,36.7,29.83,WSW,258,19.0,25.0,52,0.00,,---,0.03,616.00,VWS V14.01,2013-10-19 17:18:00,
2013-10-19 12:23:00,54.2,38.4,29.83,WSW,253,17.0,20.0,55,0.00,,---,0.03,600.00,VWS V14.01,2013-10-19 17:23:00,
2013-10-19 12:28:00,54.7,38.9,29.83,WSW,254,18.0,21.0,55,0.00,,---,0.03,48.00,VWS V14.01,2013-10-19 17:28:00,
2013-10-19 12:33:00,54.8,37.0,29.82,WSW,251,21.0,27.0,51,0.00,,---,0.03,44.00,VWS V14.01,2013-10-19 17:33:00,
2013-10-19 12:38:00,55.1,36.8,29.82,WSW,246,24.0,25.0,50,0.00,,---,0.03,42.00,VWS V14.01,2013-10-19 17:38:00,
2013-10-19 12:43:00,55.7,36.3,29.82,West,270,18.0,28.0,48,0.00,,---,0.03,55.00,VWS V14.01,2013-10-19 17:43:00,
2013-10-19 12:48:00,56.2,36.8,29.81,West,260,18.0,25.0,48,0.00,,---,0.03,577.00,VWS V14.01,2013-10-19 17:48:00,
2013-10-19 12:53:00,56.7,37.2,29.81,WSW,244,22.0,22.0,48,0.00,,---,0.03,114.00,VWS V14.01,2013-10-19 17:53:00,
2013-10-19 12:58:00,57.3,37.3,29.81,WSW,253,17.0,22.0,47,0.01,,---,0.04,640.00,VWS V14.01,2013-10-19 17:58:00,
2013-10-19 13:03:00,57.8,37.7,29.80,West,267,18.0,25.0,47,0.01,,---,0.04,591.00,VWS V14.01,2013-10-19 18:03:00,
2013-10-19 13:08:00,58.1,36.9,29.80,WSW,253,20.0,24.0,45,0.01,,---,0.04,40.00,VWS V14.01,2013-10-19 18:08:00,
2013-10-19 13:13:00,58.7,37.4,29.80,WSW,241,19.0,22.0,45,0.01,,---,0.04,40.00,VWS V14.01,2013-10-19 18:13:00,
2013-10-19 13:18:00,59.2,35.5,29.79,WSW,258,14.0,24.0,41,0.01,,---,0.04,40.00,VWS V14.01,2013-10-19 18:18:00,
2013-10-19 13:23:00,59.0,36.6,29.79,WSW,254,17.0,24.0,43,0.01,,---,0.04,95.00,VWS V14.01,2013-10-19 18:23:00,
2013-10-19 13:28:00,59.3,36.2,29.79,WSW,248,20.0,24.0,42,0.01,,---,0.04,95.00,VWS V14.01,2013-10-19 18:28:00,
2013-10-19 13:33:00,59.6,36.5,29.79,WSW,246,10.0,22.0,42,0.01,,---,0.04,127.00,VWS V14.01,2013-10-19 18:33:00,
2013-10-19 13:39:00,60.1,36.3,29.79,WSW,256,11.0,22.0,41,0.01,,---,0.04,642.00,VWS V14.01,2013-10-19 18:39:00,
2013-10-19 13:44:00,60.5,36.7,29.79,WSW,251,17.0,20.0,41,0.01,,---,0.04,640.00,VWS V14.01,2013-10-19 18:44:00,
2013-10-19 13:49:00,60.9,36.4,29.78,WSW,256,12.0,21.0,40,0.01,,---,0.04,639.00,VWS V14.01,2013-10-19 18:49:00,
2013-10-19 13:54:00,61.2,36.1,29.78,WSW,258,13.0,22.0,39,0.01,,---,0.04,618.00,VWS V14.01,2013-10-19 18:54:00,
2013-10-19 13:59:00,61.6,36.4,29.78,WSW,257,12.0,15.0,39,0.00,,---,0.04,111.00,VWS V14.01,2013-10-19 18:59:00,
2013-10-19 14:04:00,62.0,36.8,29.77,West,263,14.0,20.0,39,0.00,,---,0.04,42.00,VWS V14.01,2013-10-19 19:04:00,
2013-10-19 14:09:00,62.1,35.5,29.77,West,263,16.0,20.0,37,0.00,,---,0.04,42.00,VWS V14.01,2013-10-19 19:09:00,
2013-10-19 14:14:00,62.1,36.9,29.77,West,275,19.0,19.0,39,0.00,,---,0.04,83.00,VWS V14.01,2013-10-19 19:14:00,
2013-10-19 14:19:00,62.1,34.8,29.77,WSW,247,12.0,18.0,36,0.00,,---,0.04,614.00,VWS V14.01,2013-10-19 19:19:00,
2013-10-19 14:24:00,62.0,34.1,29.77,West,268,9.0,22.0,35,0.00,,---,0.04,611.00,VWS V14.01,2013-10-19 19:24:00,
2013-10-19 14:29:00,62.3,35.0,29.77,West,264,13.0,17.0,36,0.00,,---,0.04,602.00,VWS V14.01,2013-10-19 19:29:00,
2013-10-19 14:34:00,62.4,35.1,29.77,WSW,256,13.0,19.0,36,0.00,,---,0.04,596.00,VWS V14.01,2013-10-19 19:34:00,
2013-10-19 14:40:00,62.7,36.8,29.77,WSW,253,7.0,20.0,38,0.00,,---,0.04,589.00,VWS V14.01,2013-10-19 19:40:00,
2013-10-19 14:45:00,62.9,34.8,29.76,WSW,257,18.0,21.0,35,0.00,,---,0.04,582.00,VWS V14.01,2013-10-19 19:45:00,
2013-10-19 14:50:00,63.1,35.7,29.76,West,261,11.0,21.0,36,0.00,,---,0.04,575.00,VWS V14.01,2013-10-19 19:50:00,
2013-10-19 14:55:00,62.9,36.9,29.76,WSW,244,11.0,18.0,38,0.00,,---,0.04,567.00,VWS V14.01,2013-10-19 19:55:00,
2013-10-19 15:00:00,63.2,34.4,29.75,WSW,247,12.0,22.0,34,0.00,,---,0.04,561.00,VWS V14.01,2013-10-19 20:00:00,
2013-10-19 15:05:00,63.2,34.4,29.75,West,264,16.0,19.0,34,0.00,,---,0.04,549.00,VWS V14.01,2013-10-19 20:05:00,
2013-10-19 15:10:00,63.9,35.0,29.75,West,261,19.0,21.0,34,0.00,,---,0.04,540.00,VWS V14.01,2013-10-19 20:10:00,
2013-10-19 15:15:00,63.7,34.8,29.75,WNW,284,8.0,19.0,34,0.00,,---,0.04,531.00,VWS V14.01,2013-10-19 20:15:00,
2013-10-19 15:20:00,64.0,35.1,29.75,WSW,248,9.0,15.0,34,0.00,,---,0.04,521.00,VWS V14.01,2013-10-19 20:20:00,
2013-10-19 15:25:00,64.0,32.8,29.75,WSW,256,12.0,20.0,31,0.00,,---,0.04,512.00,VWS V14.01,2013-10-19 20:25:00,
2013-10-19 15:30:00,64.3,36.1,29.75,West,275,12.0,17.0,35,0.00,,---,0.04,503.00,VWS V14.01,2013-10-19 20:30:00,
2013-10-19 15:35:00,64.7,34.2,29.75,WSW,247,17.0,20.0,32,0.00,,---,0.04,473.00,VWS V14.01,2013-10-19 20:35:00,
2013-10-19 15:40:00,64.7,35.0,29.75,WSW,257,19.0,20.0,33,0.00,,---,0.04,480.00,VWS V14.01,2013-10-19 20:40:00,
2013-10-19 15:45:00,64.3,35.4,29.74,WSW,248,14.0,20.0,34,0.00,,---,0.04,468.00,VWS V14.01,2013-10-19 20:45:00,
2013-10-19 15:50:00,64.5,34.8,29.74,West,268,14.0,14.0,33,0.00,,---,0.04,454.00,VWS V14.01,2013-10-19 20:50:00,
2013-10-19 15:55:00,64.7,36.4,29.74,WSW,254,17.0,17.0,35,0.00,,---,0.04,442.00,VWS V14.01,2013-10-19 20:55:00,
2013-10-19 16:00:00,65.0,36.7,29.74,West,275,8.0,13.0,35,0.00,,---,0.04,429.00,VWS V14.01,2013-10-19 21:00:00,
2013-10-19 16:06:00,65.0,36.0,29.74,West,261,16.0,18.0,34,0.00,,---,0.04,421.00,VWS V14.01,2013-10-19 21:06:00,
2013-10-19 16:11:00,64.7,36.4,29.74,WSW,253,13.0,14.0,35,0.00,,---,0.04,406.00,VWS V14.01,2013-10-19 21:11:00,
2013-10-19 16:16:00,64.5,35.5,29.74,WSW,246,13.0,14.0,34,0.00,,---,0.04,391.00,VWS V14.01,2013-10-19 21:16:00,
2013-10-19 16:21:00,64.8,36.5,29.74,West,263,6.0,13.0,35,0.00,,---,0.04,377.00,VWS V14.01,2013-10-19 21:21:00,
2013-10-19 16:26:00,64.8,36.5,29.74,WSW,254,17.0,19.0,35,0.00,,---,0.04,364.00,VWS V14.01,2013-10-19 21:26:00,
2013-10-19 16:31:00,65.0,36.7,29.73,WSW,243,11.0,13.0,35,0.00,,---,0.04,348.00,VWS V14.01,2013-10-19 21:31:00,
2013-10-19 16:36:00,65.0,36.7,29.73,WSW,240,14.0,17.0,35,0.00,,---,0.04,336.00,VWS V14.01,2013-10-19 21:36:00,
2013-10-19 16:41:00,65.2,37.6,29.73,WSW,254,14.0,16.0,36,0.00,,---,0.04,322.00,VWS V14.01,2013-10-19 21:41:00,
2013-10-19 16:46:00,65.2,36.9,29.73,SW,234,13.0,14.0,35,0.00,,---,0.04,308.00,VWS V14.01,2013-10-19 21:46:00,
2013-10-19 16:51:00,65.0,36.7,29.73,WSW,250,14.0,18.0,35,0.00,,---,0.04,294.00,VWS V14.01,2013-10-19 21:51:00,
2013-10-19 16:56:00,65.3,37.7,29.73,WSW,256,10.0,14.0,36,0.00,,---,0.04,274.00,VWS V14.01,2013-10-19 21:56:00,
2013-10-19 17:01:00,65.2,36.9,29.72,WSW,244,12.0,17.0,35,0.00,,---,0.04,264.00,VWS V14.01,2013-10-19 22:01:00,
2013-10-19 17:06:00,65.0,37.4,29.72,WSW,250,12.0,16.0,36,0.00,,---,0.04,243.00,VWS V14.01,2013-10-19 22:06:00,
2013-10-19 17:11:00,65.2,38.3,29.72,WSW,257,13.0,13.0,37,0.00,,---,0.04,227.00,VWS V14.01,2013-10-19 22:11:00,
2013-10-19 17:16:00,65.0,37.4,29.72,WSW,256,10.0,17.0,36,0.00,,---,0.04,213.00,VWS V14.01,2013-10-19 22:16:00,
2013-10-19 17:21:00,65.0,38.1,29.72,West,278,10.0,14.0,37,0.00,,---,0.04,199.00,VWS V14.01,2013-10-19 22:21:00,
2013-10-19 17:27:00,65.0,37.4,29.72,WSW,250,12.0,18.0,36,0.00,,---,0.04,185.00,VWS V14.01,2013-10-19 22:27:00,
2013-10-19 17:32:00,64.8,36.5,29.71,WSW,241,14.0,18.0,35,0.00,,---,0.04,171.00,VWS V14.01,2013-10-19 22:32:00,
2013-10-19 17:37:00,64.7,37.2,29.71,WSW,244,13.0,17.0,36,0.00,,---,0.04,155.00,VWS V14.01,2013-10-19 22:37:00,
2013-10-19 17:42:00,64.7,38.5,29.71,SW,236,11.0,13.0,38,0.00,,---,0.04,144.00,VWS V14.01,2013-10-19 22:42:00,
2013-10-19 17:47:00,64.5,37.7,29.71,West,260,14.0,14.0,37,0.00,,---,0.04,127.00,VWS V14.01,2013-10-19 22:47:00,
2013-10-19 17:52:00,64.5,38.3,29.71,WSW,241,7.0,13.0,38,0.00,,---,0.04,111.00,VWS V14.01,2013-10-19 22:52:00,
2013-10-19 17:57:00,64.3,38.2,29.71,WSW,243,5.0,12.0,38,0.00,,---,0.04,97.00,VWS V14.01,2013-10-19 22:57:00,
2013-10-19 18:02:00,64.2,38.8,29.71,WSW,241,7.0,11.0,39,0.00,,---,0.04,83.00,VWS V14.01,2013-10-19 23:02:00,
2013-10-19 18:07:00,63.9,39.1,29.71,WSW,241,6.0,8.0,40,0.00,,---,0.04,67.00,VWS V14.01,2013-10-19 23:07:00,
2013-10-19 18:12:00,63.7,39.6,29.71,WSW,239,9.0,9.0,41,0.00,,---,0.04,55.00,VWS V14.01,2013-10-19 23:12:00,
2013-10-19 18:17:00,63.4,39.3,29.71,WSW,239,7.0,9.0,41,0.00,,---,0.04,42.00,VWS V14.01,2013-10-19 23:17:00,
2013-10-19 18:22:00,63.1,39.0,29.71,SW,232,5.0,8.0,41,0.00,,---,0.04,32.00,VWS V14.01,2013-10-19 23:22:00,
2013-10-19 18:27:00,62.4,39.6,29.71,SW,230,5.0,6.0,43,0.00,,---,0.04,28.00,VWS V14.01,2013-10-19 23:27:00,
2013-10-19 18:32:00,61.8,39.7,29.71,SW,223,7.0,8.0,44,0.00,,---,0.04,11.00,VWS V14.01,2013-10-19 23:32:00,
2013-10-19 18:37:00,61.2,39.7,29.71,SW,230,8.0,9.0,45,0.00,,---,0.04,7.00,VWS V14.01,2013-10-19 23:37:00,
2013-10-19 18:42:00,60.4,40.1,29.71,SW,227,9.0,10.0,47,0.00,,---,0.04,0.00,VWS V14.01,2013-10-19 23:42:00,
2013-10-19 18:47:00,59.5,39.8,29.71,WSW,240,7.0,10.0,48,0.00,,---,0.04,0.00,VWS V14.01,2013-10-19 23:47:00,
2013-10-19 18:53:00,58.7,39.6,29.71,SW,229,6.0,9.0,49,0.00,,---,0.04,0.00,VWS V14.01,2013-10-19 23:53:00,
2013-10-19 18:58:00,58.1,39.6,29.71,SW,220,6.0,10.0,50,0.00,,---,0.04,0.00,VWS V14.01,2013-10-19 23:58:00,
2013-10-19 19:03:00,58.1,39.6,29.72,North,349,10.0,11.0,50,0.00,,---,0.04,0.00,VWS V14.01,2013-10-20 00:03:00,
2013-10-19 19:08:00,58.1,39.6,29.72,North,0,9.0,11.0,50,0.00,,---,0.04,0.00,VWS V14.01,2013-10-20 00:08:00,
2013-10-19 19:13:00,58.1,39.6,29.72,NW,309,8.0,12.0,50,0.00,,---,0.04,0.00,VWS V14.01,2013-10-20 00:13:00,
2013-10-19 19:18:00,58.0,39.5,29.71,WNW,287,8.0,12.0,50,0.00,,---,0.04,0.00,VWS V14.01,2013-10-20 00:18:00,
2013-10-19 19:23:00,57.6,39.1,29.71,North,0,8.0,11.0,50,0.00,,---,0.04,0.00,VWS V14.01,2013-10-20 00:23:00,
2013-10-19 19:28:00,57.2,39.2,29.71,SW,222,10.0,12.0,51,0.00,,---,0.04,0.00,VWS V14.01,2013-10-20 00:28:00,
2013-10-19 19:33:00,56.9,39.5,29.71,North,0,12.0,13.0,52,0.00,,---,0.04,0.00,VWS V14.01,2013-10-20 00:33:00,
2013-10-19 19:38:00,56.6,39.2,29.71,WSW,257,9.0,12.0,52,0.00,,---,0.04,0.00,VWS V14.01,2013-10-20 00:38:00,
2013-10-19 19:43:00,56.5,39.1,29.71,North,349,12.0,13.0,52,0.00,,---,0.04,0.00,VWS V14.01,2013-10-20 00:43:00,
2013-10-19 19:48:00,56.3,38.9,29.71,North,352,11.0,14.0,52,0.00,,---,0.04,0.00,VWS V14.01,2013-10-20 00:48:00,
2013-10-19 19:53:00,56.0,39.1,29.71,North,352,13.0,14.0,53,0.00,,---,0.04,0.00,VWS V14.01,2013-10-20 00:53:00,
2013-10-19 19:58:00,55.9,39.0,29.71,West,272,14.0,15.0,53,0.00,,---,0.04,0.00,VWS V14.01,2013-10-20 00:58:00,
2013-10-19 20:03:00,55.6,38.8,29.71,WSW,251,12.0,14.0,53,0.00,,---,0.04,0.00,VWS V14.01,2013-10-20 01:03:00,
2013-10-19 20:08:00,55.4,38.6,29.71,North,0,13.0,14.0,53,0.00,,---,0.04,0.00,VWS V14.01,2013-10-20 01:08:00,
2013-10-19 20:13:00,55.4,38.1,29.71,WSW,251,12.0,14.0,52,0.00,,---,0.04,0.00,VWS V14.01,2013-10-20 01:13:00,
2013-10-19 20:18:00,55.6,38.3,29.71,North,0,12.0,14.0,52,0.00,,---,0.04,0.00,VWS V14.01,2013-10-20 01:18:00,
2013-10-19 20:23:00,55.4,38.1,29.71,North,0,12.0,14.0,52,0.00,,---,0.04,0.00,VWS V14.01,2013-10-20 01:23:00,
2013-10-19 20:29:00,55.1,38.3,29.71,SW,216,12.0,15.0,53,0.00,,---,0.04,0.00,VWS V14.01,2013-10-20 01:29:00,
2013-10-19 20:34:00,55.1,37.8,29.71,SW,222,13.0,14.0,52,0.00,,---,0.04,0.00,VWS V14.01,2013-10-20 01:34:00,
2013-10-19 20:39:00,55.1,37.8,29.71,North,0,11.0,14.0,52,0.00,,---,0.04,0.00,VWS V14.01,2013-10-20 01:39:00,
2013-10-19 20:44:00,54.8,38.0,29.71,North,0,13.0,15.0,53,0.00,,---,0.04,0.00,VWS V14.01,2013-10-20 01:44:00,
2013-10-19 20:49:00,54.5,37.7,29.71,WNW,288,12.0,16.0,53,0.00,,---,0.04,0.00,VWS V14.01,2013-10-20 01:49:00,
2013-10-19 20:54:00,54.4,37.6,29.71,NW,316,13.0,15.0,53,0.00,,---,0.04,0.00,VWS V14.01,2013-10-20 01:54:00,
2013-10-19 20:59:00,54.2,37.5,29.71,WSW,256,12.0,15.0,53,0.00,,---,0.04,0.00,VWS V14.01,2013-10-20 01:59:00,
2013-10-19 21:04:00,53.9,37.7,29.71,WNW,298,12.0,14.0,54,0.00,,---,0.04,0.00,VWS V14.01,2013-10-20 02:04:00,
2013-10-19 21:09:00,53.6,37.4,29.71,WSW,237,12.0,14.0,54,0.00,,---,0.04,0.00,VWS V14.01,2013-10-20 02:09:00,
2013-10-19 21:14:00,53.3,37.6,29.71,North,0,12.0,14.0,55,0.00,,---,0.04,0.00,VWS V14.01,2013-10-20 02:14:00,
2013-10-19 21:19:00,53.2,37.5,29.71,SW,226,11.0,13.0,55,0.00,,---,0.04,0.00,VWS V14.01,2013-10-20 02:19:00,
2013-10-19 21:24:00,53.2,37.5,29.71,SW,234,10.0,13.0,55,0.00,,---,0.04,0.00,VWS V14.01,2013-10-20 02:24:00,
2013-10-19 21:29:00,53.2,37.5,29.71,SW,226,11.0,12.0,55,0.00,,---,0.04,0.00,VWS V14.01,2013-10-20 02:29:00,
2013-10-19 21:34:00,53.2,37.0,29.71,SW,232,10.0,13.0,54,0.00,,---,0.04,0.00,VWS V14.01,2013-10-20 02:34:00,
2013-10-19 21:39:00,53.2,37.0,29.71,SW,223,9.0,14.0,54,0.00,,---,0.04,0.00,VWS V14.01,2013-10-20 02:39:00,
2013-10-19 21:44:00,53.3,36.6,29.71,West,267,12.0,13.0,53,0.00,,---,0.04,0.00,VWS V14.01,2013-10-20 02:44:00,
2013-10-19 21:49:00,53.3,36.6,29.71,SW,236,10.0,13.0,53,0.00,,---,0.04,0.00,VWS V14.01,2013-10-20 02:49:00,
2013-10-19 21:54:00,53.3,37.1,29.71,SW,232,10.0,14.0,54,0.00,,---,0.04,0.00,VWS V14.01,2013-10-20 02:54:00,
2013-10-19 21:59:00,53.1,36.9,29.71,SW,233,8.0,13.0,54,0.00,,---,0.04,0.00,VWS V14.01,2013-10-20 02:59:00,
2013-10-19 22:05:00,52.9,36.7,29.71,SW,227,12.0,13.0,54,0.00,,---,0.04,0.00,VWS V14.01,2013-10-20 03:05:00,
2013-10-19 22:10:00,52.5,36.8,29.71,SW,219,10.0,13.0,55,0.00,,---,0.04,0.00,VWS V14.01,2013-10-20 03:10:00,
2013-10-19 22:15:00,52.0,36.8,29.70,SW,226,8.0,12.0,56,0.00,,---,0.04,0.00,VWS V14.01,2013-10-20 03:15:00,
2013-10-19 22:20:00,51.7,37.0,29.70,SW,233,12.0,14.0,57,0.00,,---,0.04,0.00,VWS V14.01,2013-10-20 03:20:00,
2013-10-19 22:25:00,51.4,37.1,29.70,SW,229,6.0,13.0,58,0.00,,---,0.04,0.00,VWS V14.01,2013-10-20 03:25:00,
2013-10-19 22:30:00,51.1,37.3,29.70,SW,223,11.0,12.0,59,0.00,,---,0.04,0.00,VWS V14.01,2013-10-20 03:30:00,
2013-10-19 22:35:00,51.1,37.3,29.70,SW,226,12.0,14.0,59,0.00,,---,0.04,0.00,VWS V14.01,2013-10-20 03:35:00,
2013-10-19 22:40:00,51.1,37.3,29.70,WSW,237,8.0,13.0,59,0.00,,---,0.04,0.00,VWS V14.01,2013-10-20 03:40:00,
2013-10-19 22:45:00,51.3,37.5,29.70,WSW,239,10.0,13.0,59,0.00,,---,0.04,0.00,VWS V14.01,2013-10-20 03:45:00,
2013-10-19 22:50:00,51.3,37.5,29.70,SW,227,10.0,13.0,59,0.00,,---,0.04,0.00,VWS V14.01,2013-10-20 03:50:00,
2013-10-19 22:55:00,51.1,37.7,29.70,SW,230,12.0,13.0,60,0.00,,---,0.04,0.00,VWS V14.01,2013-10-20 03:55:00,
2013-10-19 23:00:00,51.0,37.6,29.70,SW,227,7.0,14.0,60,0.00,,---,0.04,0.00,VWS V14.01,2013-10-20 04:00:00,
2013-10-19 23:01:00,51.0,37.6,29.70,SW,234,10.0,10.0,60,0.00,,---,0.04,0.00,VWS V14.01,2013-10-20 04:01:00,
2013-10-19 23:02:00,51.0,37.6,29.70,WSW,243,12.0,12.0,60,0.00,,---,0.04,0.00,VWS V14.01,2013-10-20 04:02:00,
2013-10-19 23:04:00,51.0,37.6,29.70,WSW,250,11.0,12.0,60,0.00,,---,0.04,0.00,VWS V14.01,2013-10-20 04:04:00,
2013-10-19 23:09:00,50.8,37.4,29.70,WSW,240,9.0,14.0,60,0.00,,---,0.04,0.00,VWS V14.01,2013-10-20 04:09:00,
2013-10-19 23:14:00,50.7,37.3,29.70,SW,226,7.0,11.0,60,0.00,,---,0.04,0.00,VWS V14.01,2013-10-20 04:14:00,
2013-10-19 23:19:00,50.4,37.5,29.69,SW,232,7.0,12.0,61,0.00,,---,0.04,0.00,VWS V14.01,2013-10-20 04:19:00,
2013-10-19 23:24:00,50.1,37.6,29.69,WSW,243,7.0,12.0,62,0.00,,---,0.04,0.00,VWS V14.01,2013-10-20 04:24:00,
2013-10-19 23:29:00,49.8,37.3,29.69,SW,234,8.0,11.0,62,0.00,,---,0.04,0.00,VWS V14.01,2013-10-20 04:29:00,
2013-10-19 23:34:00,49.6,37.5,29.69,WSW,251,9.0,11.0,63,0.00,,---,0.04,0.00,VWS V14.01,2013-10-20 04:34:00,
2013-10-19 23:39:00,49.4,37.3,29.69,SW,233,10.0,13.0,63,0.00,,---,0.04,0.00,VWS V14.01,2013-10-20 04:39:00,
2013-10-19 23:44:00,49.1,37.5,29.69,SW,234,8.0,13.0,64,0.00,,---,0.04,0.00,VWS V14.01,2013-10-20 04:44:00,
2013-10-19 23:49:00,48.8,37.6,29.69,WSW,239,7.0,11.0,65,0.00,,---,0.04,0.00,VWS V14.01,2013-10-20 04:49:00,
2013-10-19 23:54:00,48.8,37.6,29.69,WSW,237,11.0,12.0,65,0.00,,---,0.04,0.00,VWS V14.01,2013-10-20 04:54:00,
2013-10-19 23:59:00,48.9,37.7,29.68,SW,236,10.0,12.0,65,0.00,,---,0.04,0.00,VWS V14.01,2013-10-20 04:59:00,